Tracking 18647 objects as of 28-May-2017
HD Live streaming from Space Station
objects crossing your sky now

COSMOS 402

Track COSMOS 402 now!
10-day predictions
COSMOS 402 is classified as:


NORAD ID: 5105
Int'l Code: 1971-025A
Perigee: 952.3 km
Apogee: 1,039.6 km
Inclination: 65.0 °
Period: 104.9 minutes
Semi major axis: 7366 km
RCS: 3.1116 m2 (large)
Launch date: April 1, 1971
Source: Commonwealth of Independent States (former USSR) (CIS)
Launch site: TYURATAM MISSILE AND SPACE COMPLEX (TTMTR)
Your satellite tracking list
Your tracking list is empty





NASA's NSSDC Master Catalog

Two Line Element Set (TLE):
1  5105U 71025A   17147.19809194 -.00000069 +00000-0 +18315-4 0  9995
2  5105 064.9826 022.0282 0059253 259.6986 237.2369 13.73042935313841
Source of the keplerian elements: AFSPC